Location: Arbon
(43.0005°N, 0.7472°E)
Time: 04:21:41
(UTC+00:00)

Vanguard 2 Rocket - Pass Details

Date: 21 June 2021
Orbit: 554 x 3325 km, 32.9° (Epoch: 26 July)

Event Time Altitude Azimuth Distance (km) Brightness Sun altitude
Rises 19:57:39 0° 250° (WSW) 7,277 12.0 -3.5°
Reaches altitude 10° 20:02:40 10° 247° (WSW) 6,281 11.6 -4.2°
Maximum altitude 20:21:55 58° 176° (S) 3,166 9.4 -6.9°
Drops below altitude 10° 20:35:13 10° 102° (ESE) 4,514 9.9 -8.7°
Sets 20:38:10 0° 98° (E) 5,199 10.3 -9.1°
